| time (UTC) | temp F | wind direction | speed knots | gust knots | rain 1hr in | rain 24hr in | rain mn in | humidity % | barometer mb |
| 20260506113059 | 45 | 302 | 0.9 | 4.3 | 0.00 | 0.00 | 0.00 | 55 | 1006.2 |
| 20260506111556 | 46 | 319 | 0.0 | 10.4 | 0.00 | 0.00 | 0.00 | 55 | 1006.1 |
| 20260506110054 | 46 | 257 | 0.0 | 0.0 | 0.00 | 0.00 | 0.00 | 56 | 1005.9 |
| 20260506104551 | 46 | 289 | 0.0 | 2.6 | 0.00 | 0.00 | 0.00 | 56 | 1005.6 |
| 20260506103054 | 46 | 292 | 0.0 | 7.0 | 0.00 | 0.00 | 0.00 | 56 | 1005.4 |
| 20260506101547 | 46 | 284 | 0.0 | 3.5 | 0.00 | 0.00 | 0.00 | 56 | 1005.2 |
| 20260506100046 | 47 | 284 | 0.0 | 2.6 | 0.00 | 0.00 | 0.00 | 56 | 1005.3 |
| 20260506094545 | 47 | 236 | 0.0 | 0.9 | 0.00 | 0.00 | 0.00 | 55 | 1005.2 |
| 20260506093042 | 47 | 271 | 0.0 | 5.2 | 0.00 | 0.00 | 0.00 | 54 | 1005.2 |
| 20260506091539 | 48 | 241 | 0.0 | 7.0 | 0.00 | 0.00 | 0.00 | 52 | 1005.1 |
| 20260506090045 | 48 | 249 | 0.0 | 4.3 | 0.00 | 0.00 | 0.00 | 50 | 1004.9 |
| 20260506084536 | 49 | 236 | 0.0 | 8.7 | 0.00 | 0.00 | 0.00 | 49 | 1004.8 |
| 20260506083030 | 49 | 271 | 2.6 | 7.8 | 0.00 | 0.00 | 0.00 | 47 | 1004.7 |
| 20260506081529 | 50 | 285 | 0.0 | 7.0 | 0.00 | 0.00 | 0.00 | 46 | 1004.7 |
| 20260506073022 | 50 | 202 | 1.7 | 7.8 | 0.00 | 0.00 | 0.00 | 43 | 1004.5 |
| 20260506071518 | 50 | 268 | 0.0 | 3.5 | 0.00 | 0.00 | 0.00 | 41 | 1004.5 |
| 20260506061507 | 53 | 205 | 1.7 | 7.8 | 0.00 | 0.00 | 0.00 | 38 | 1004.0 |
| 20260506050111 | 53 | 250 | 0.0 | 7.0 | 0.00 | 0.00 | 0.00 | 42 | 1003.7 |
| 20260506044557 | 53 | 177 | 0.0 | 3.5 | 0.00 | 0.00 | 0.00 | 43 | 1003.6 |
| 20260506043104 | 53 | 259 | 0.0 | 3.5 | 0.00 | 0.00 | 0.00 | 44 | 1003.5 |
| 20260506041554 | 53 | 239 | 0.9 | 9.6 | 0.00 | 0.00 | 0.00 | 45 | 1003.3 |
| 20260506034554 | 54 | 260 | 0.0 | 12.2 | 0.00 | 0.00 | 0.00 | 46 | 1003.0 |
| 20260506033050 | 54 | 268 | 0.9 | 6.1 | 0.00 | 0.00 | 0.00 | 45 | 1002.8 |
| 20260506031551 | 54 | 248 | 2.6 | 10.4 | 0.00 | 0.00 | 0.00 | 45 | 1002.6 |
| 20260506030053 | 54 | 243 | 2.6 | 10.4 | 0.00 | 0.00 | 0.00 | 44 | 1002.6 |
| 20260506024554 | 55 | 240 | 1.7 | 7.8 | 0.00 | 0.00 | 0.00 | 44 | 1002.4 |
| 20260506023044 | 55 | 317 | 0.0 | 8.7 | 0.00 | 0.00 | 0.00 | 44 | 1002.1 |
| 20260506021557 | 55 | 143 | 0.9 | 12.2 | 0.00 | 0.00 | 0.00 | 44 | 1001.9 |
| 20260506020041 | 55 | 245 | 4.3 | 11.3 | 0.00 | 0.00 | 0.00 | 44 | 1001.6 |
| 20260506014542 | 56 | 261 | 2.6 | 11.3 | 0.00 | 0.00 | 0.00 | 44 | 1001.4 |
| 20260506013050 | 56 | 219 | 2.6 | 13.0 | 0.00 | 0.00 | 0.00 | 45 | 1001.2 |
| 20260506011540 | 56 | 217 | 0.9 | 12.2 | 0.00 | 0.00 | 0.00 | 46 | 1001.2 |
| 20260506010040 | 56 | 200 | 1.7 | 13.9 | 0.00 | 0.00 | 0.00 | 45 | 1000.9 |
| 20260506004539 | 56 | 234 | 1.7 | 12.2 | 0.00 | 0.00 | 0.00 | 47 | 1000.8 |
| 20260506003039 | 57 | 236 | 3.5 | 9.6 | 0.00 | 0.00 | 0.00 | 48 | 1000.7 |
| 20260506001542 | 57 | 95 | 2.6 | 14.8 | 0.00 | 0.00 | 0.00 | 48 | 1000.8 |
| 20260506000042 | 57 | 178 | 2.6 | 8.7 | 0.00 | 0.00 | 0.00 | 47 | 1000.7 |
| 20260505234537 | 58 | 228 | 2.6 | 13.9 | 0.00 | 0.00 | 0.00 | 48 | 1000.6 |
| 20260505233038 | 58 | 284 | 0.9 | 12.2 | 0.00 | 0.00 | 0.00 | 48 | 1000.7 |
| 20260505231544 | 58 | 180 | 3.5 | 14.8 | 0.00 | 0.00 | 0.00 | 47 | 1000.6 |
| 20260505230038 | 59 | 217 | 5.2 | 14.8 | 0.00 | 0.00 | 0.00 | 46 | 1000.4 |
| 20260505224537 | 59 | 202 | 4.3 | 17.4 | 0.00 | 0.00 | 0.00 | 47 | 1000.5 |
| 20260505223036 | 59 | 323 | 5.2 | 15.6 | 0.00 | 0.00 | 0.00 | 47 | 1000.3 |
| 20260505221537 | 60 | 208 | 4.3 | 15.6 | 0.00 | 0.00 | 0.00 | 46 | 1000.3 |
| 20260505220037 | 60 | 256 | 2.6 | 16.5 | 0.00 | 0.00 | 0.00 | 46 | 1000.4 |
| 20260505214553 | 60 | 317 | 7.8 | 16.5 | 0.00 | 0.00 | 0.00 | 45 | 1000.5 |
| 20260505213031 | 60 | 296 | 5.2 | 19.1 | 0.00 | 0.00 | 0.00 | 47 | 1000.6 |
| 20260505211534 | 60 | 296 | 6.1 | 18.2 | 0.00 | 0.00 | 0.00 | 49 | 1001.0 |
| 20260505210030 | 58 | 271 | 3.5 | 16.5 | 0.00 | 0.00 | 0.00 | 52 | 1001.0 |
| 20260505204533 | 58 | 186 | 5.2 | 14.8 | 0.00 | 0.00 | 0.00 | 54 | 1001.2 |
| 20260505203030 | 57 | 246 | 3.5 | 18.2 | 0.00 | 0.00 | 0.00 | 57 | 1001.3 |
| 20260505201528 | 58 | 233 | 3.5 | 13.9 | 0.00 | 0.00 | 0.00 | 57 | 1001.4 |
| 20260505200038 | 56 | 192 | 2.6 | 14.8 | 0.00 | 0.00 | 0.00 | 66 | 1001.6 |
| 20260505194527 | 57 | 232 | 4.3 | 20.0 | 0.00 | 0.00 | 0.00 | 64 | 1002.0 |
| 20260505193026 | 58 | 180 | 5.2 | 17.4 | 0.00 | 0.00 | 0.00 | 60 | 1001.5 |
| 20260505191522 | 59 | 221 | 2.6 | 11.3 | 0.00 | 0.00 | 0.00 | 52 | 1001.8 |
| 20260505190029 | 58 | 157 | 6.1 | 17.4 | 0.00 | 0.00 | 0.00 | 51 | 1001.7 |
| 20260505184522 | 62 | 262 | 3.5 | 18.2 | 0.00 | 0.00 | 0.00 | 41 | 1001.4 |
| 20260505183028 | 62 | 306 | 5.2 | 17.4 | 0.00 | 0.00 | 0.00 | 40 | 1001.2 |
| 20260505181519 | 62 | 225 | 8.7 | 21.7 | 0.00 | 0.00 | 0.00 | 40 | 1001.6 |
| 20260505180022 | 63 | 138 | 7.8 | 18.2 | 0.00 | 0.00 | 0.00 | 39 | 1001.2 |
| 20260505174516 | 62 | 138 | 7.0 | 19.1 | 0.00 | 0.00 | 0.00 | 39 | 1001.1 |
| 20260505173014 | 62 | 121 | 4.3 | 20.9 | 0.00 | 0.00 | 0.00 | 40 | 1001.4 |
| 20260505171511 | 62 | 218 | 6.1 | 16.5 | 0.00 | 0.00 | 0.00 | 35 | 1001.6 |
| 20260505170010 | 61 | 207 | 4.3 | 13.0 | 0.00 | 0.00 | 0.00 | 35 | 1001.8 |
| 20260505164507 | 60 | 245 | 3.5 | 16.5 | 0.00 | 0.00 | 0.00 | 37 | 1001.4 |
| 20260505163014 | 60 | 286 | 6.1 | 15.6 | 0.00 | 0.00 | 0.00 | 35 | 1001.7 |
| 20260505161505 | 60 | 278 | 2.6 | 11.3 | 0.00 | 0.00 | 0.00 | 35 | 1001.8 |
| 20260505153108 | 59 | 180 | 2.6 | 17.4 | 0.00 | 0.00 | 0.00 | 36 | 1001.3 |
| 20260505151607 | 57 | 267 | 5.2 | 17.4 | 0.00 | 0.00 | 0.00 | 38 | 1001.2 |
| 20260505140110 | 56 | 299 | 7.8 | 20.9 | 0.00 | 0.00 | 0.00 | 44 | 1001.3 |
| 20260505124541 | 54 | 161 | 5.2 | 18.2 | 0.00 | 0.00 | 0.00 | 44 | 999.8 |
| 20260505123042 | 54 | 262 | 9.6 | 20.0 | 0.00 | 0.00 | 0.00 | 44 | 999.4 |
| 20260505121636 | 54 | 257 | 6.1 | 23.5 | 0.00 | 0.00 | 0.00 | 44 | 999.5 |
| 20260505120043 | 54 | 258 | 4.3 | 12.2 | 0.00 | 0.00 | 0.00 | 44 | 999.1 |
| 20260505114534 | 54 | 223 | 2.6 | 18.2 | 0.00 | 0.00 | 0.00 | 43 | 998.9 |